Waarnemingen

Advertentie
Mijn weer
Stockholm/Bromma, Zweden (2464): temperatuur & dauwpunt: 22.10.2020 00:00:00 - 28.10.2020 00:00:00 (CET)Stockholm/Bromma, Zweden (2464): windsnelheid: 22.10.2020 00:00:00 - 28.10.2020 00:00:00 (CET)Stockholm/Bromma, Zweden (2464): windrichting: 22.10.2020 00:00:00 - 28.10.2020 00:00:00 (CET)Stockholm/Bromma, Zweden (2464): luchtdruk: 22.10.2020 00:00:00 - 28.10.2020 00:00:00 (CET)Stockholm/Bromma, Zweden (2464): zicht: 22.10.2020 00:00:00 - 28.10.2020 00:00:00 (CET)
Datum & Tijd tt [°C] td [°C] ff [km/u] ff [kn] dd ppp [hPa] vv [km]
28.10.2020 00:00:00 8,9 6,9 15 8 Z 1001,7 10
27.10.2020 23:00:00 9,6 7,5 13 7 Z 1001,8 10
27.10.2020 22:00:00 10,1 8,0 11 6 ZZW 1001,7 10
27.10.2020 21:00:00 10,4 8,7 13 7 Z 1001,9 10
27.10.2020 20:00:00 9,7 8,6 11 6 ZZO 1002,2 10
27.10.2020 19:00:00 9,5 8,3 9 5 ZZO 1002,5 10
27.10.2020 18:00:00 8,9 7,8 11 6 ZZO 1002,8 10
27.10.2020 17:00:00 9,0 7,6 11 6 ZZO 1003,1 10
27.10.2020 16:00:00 9,3 7,6 11 6 Z 1003,2 10
27.10.2020 15:00:00 9,8 7,7 13 7 Z 1002,9 10
27.10.2020 14:00:00 10,3 8,2 13 7 Z 1002,7 10
27.10.2020 13:00:00 10,5 8,8 15 8 Z 1002,7 10
27.10.2020 12:00:00 10,5 9,1 13 7 Z 1002,8 10
27.10.2020 11:00:00 10,1 8,9 13 7 Z 1002,5 10
27.10.2020 10:00:00 9,6 8,5 11 6 Z 1002,5 10
27.10.2020 09:00:00 9,3 8,5 8 4 Z 1002,1 10
27.10.2020 08:00:00 8,8 8,5 5 3 ZZW 1001,5 10
27.10.2020 07:00:00 9,2 9,1 5 3 - 1001,0 10
27.10.2020 06:00:00 9,4 9,1 5 3 Z 999,9 10
27.10.2020 05:00:00 9,9 9,4 8 4 ZW 1000,0 10
27.10.2020 04:00:00 10,5 10,3 9 5 ZZO 999,9 3,2
27.10.2020 03:00:00 10,7 10,4 13 7 ZZO 1000,2 3,5
27.10.2020 02:00:00 10,7 10,4 9 5 ZZO 1000,6 5
27.10.2020 01:00:00 10,7 10,2 11 6 ZO 1001,1 7
27.10.2020 00:00:00 10,8 10,3 11 6 ZZO 1001,6 6
26.10.2020 23:00:00 10,9 10,4 15 8 ZZO 1002,1 6
26.10.2020 22:00:00 10,9 10,6 13 7 ZZO 1002,3 4,5
26.10.2020 21:00:00 11,0 10,8 9 5 ZO 1002,6 9
26.10.2020 20:00:00 11,0 11,0 9 5 ZO 1003,0 4,1
26.10.2020 19:00:00 10,6 10,4 5 3 ZO 1003,1 7
26.10.2020 18:00:00 10,8 10,3 5 3 ZO 1003,3 10
26.10.2020 17:00:00 10,6 10,1 5 3 ZO 1003,2 10
26.10.2020 16:00:00 11,2 10,1 8 4 ZZO 1003,2 10
26.10.2020 15:00:00 11,8 10,4 9 5 ZZO 1003,0 10
26.10.2020 14:00:00 11,9 10,6 9 5 Z 1003,0 10
26.10.2020 13:00:00 11,8 11,0 8 4 Z 1003,3 10
26.10.2020 12:00:00 11,6 10,7 8 4 Z 1003,0 10
26.10.2020 11:00:00 11,3 10,5 2 1 - 1002,7 10
26.10.2020 10:00:00 11,0 10,2 5 3 - 1002,2 10
26.10.2020 09:00:00 10,5 10,0 4 2 ZZW 1002,2 10
26.10.2020 08:00:00 10,2 9,7 9 5 ZZO 1001,8 10
26.10.2020 07:00:00 10,2 9,9 9 5 ZO 1001,3 10
26.10.2020 06:00:00 10,2 9,6 9 5 Z 1001,1 10
26.10.2020 05:00:00 10,8 10,3 9 5 Z 1001,2 10
26.10.2020 04:00:00 11,5 11,0 13 7 Z 1000,8 10
26.10.2020 03:00:00 11,4 11,1 11 6 ZZO 1000,8 10
26.10.2020 02:00:00 11,2 11,0 9 5 ZZO 1001,0 9
26.10.2020 01:00:00 11,3 11,0 11 6 ZZO 1001,6 6
26.10.2020 00:00:00 11,6 10,7 13 7 ZZO 1001,9 10
25.10.2020 23:00:00 11,6 10,8 11 6 Z 1002,2 10
25.10.2020 22:00:00 11,5 10,7 15 8 Z 1001,9 10
25.10.2020 21:00:00 11,5 10,7 15 8 Z 1002,0 10
25.10.2020 20:00:00 11,9 10,6 16 9 Z 1001,9 10
25.10.2020 19:00:00 12,2 10,6 15 8 Z 1001,9 10
25.10.2020 18:00:00 12,3 10,7 18 10 ZZO 1002,0 10
25.10.2020 17:00:00 12,1 10,7 16 9 ZZO 1002,2 10
25.10.2020 16:00:00 12,5 10,7 18 10 ZZO 1002,6 10
25.10.2020 15:00:00 12,4 10,6 16 9 ZO 1002,6 10
25.10.2020 14:00:00 12,5 10,7 16 9 ZZO 1003,1 10
25.10.2020 13:00:00 12,2 10,8 15 8 ZZO 1003,6 10
25.10.2020 12:00:00 11,7 10,4 16 9 ZO 1004,0 10
25.10.2020 11:00:00 10,8 9,7 16 9 ZO 1004,8 10
25.10.2020 10:00:00 10,2 9,1 16 9 ZO 1005,1 10
25.10.2020 09:00:00 9,4 8,6 18 10 ZO 1005,5 10
25.10.2020 08:00:00 7,8 7,4 15 8 ZO 1006,1 10
25.10.2020 07:00:00 6,2 5,8 13 7 OZO 1006,3 10
25.10.2020 06:00:00 5,7 5,3 11 6 ZO 1006,7 10
25.10.2020 05:00:00 5,0 4,7 9 5 ZZO 1007,3 10
25.10.2020 04:00:00 4,4 4,3 13 7 ZO 1007,6 10
25.10.2020 03:00:00 3,7 3,7 8 4 ZZO 1008,0 10
25.10.2020 02:00:00 3,4 3,4 11 6 ZO 1008,0 6
25.10.2020 01:00:00 - - - - - - -
25.10.2020 00:00:00 3,8 3,7 9 5 ZO 1007,1 10
24.10.2020 23:00:00 3,8 3,7 0 0 N 1007,5 10
24.10.2020 22:00:00 3,7 3,6 9 5 W 1007,8 10
24.10.2020 21:00:00 3,7 3,6 11 6 W 1007,0 10
24.10.2020 20:00:00 4,1 4,0 15 8 WNW 1006,4 9
24.10.2020 19:00:00 4,1 4,0 11 6 WNW 1005,4 5
24.10.2020 18:00:00 4,2 4,1 21 11 W 1004,7 3,4
24.10.2020 17:00:00 4,8 4,4 18 10 W 1003,5 10
24.10.2020 16:00:00 6,4 5,7 24 13 W 1002,6 8
24.10.2020 15:00:00 8,7 7,9 9 5 ZW 1001,2 5
24.10.2020 14:00:00 9,6 8,8 9 5 ZW 1000,7 10
24.10.2020 13:00:00 9,5 8,8 9 5 ZW 1000,6 10
24.10.2020 12:00:00 9,4 8,8 5 3 ZW 1000,7 10
24.10.2020 11:00:00 8,8 8,7 4 2 - 1000,8 10
24.10.2020 10:00:00 6,8 6,8 5 3 - 1001,0 6
24.10.2020 09:00:00 5,5 5,4 11 6 O 1001,5 5
24.10.2020 08:00:00 4,7 4,4 11 6 O 1002,3 10
24.10.2020 07:00:00 3,6 3,3 5 3 O 1003,2 10
24.10.2020 06:00:00 2,4 2,3 5 3 ZO 1004,0 10
24.10.2020 05:00:00 1,3 1,3 5 3 OZO 1004,4 10
24.10.2020 04:00:00 1,6 1,6 5 3 ZZO 1005,2 10
24.10.2020 03:00:00 1,5 1,5 0 0 N 1005,6 10
24.10.2020 02:00:00 1,5 1,5 0 0 N 1006,0 10
24.10.2020 01:00:00 0,3 0,3 0 0 N 1006,3 10
24.10.2020 00:00:00 -0,6 -0,6 0 0 N 1006,5 10
23.10.2020 23:00:00 -0,8 -0,8 2 1 - 1006,7 10
23.10.2020 22:00:00 -1,5 -1,5 0 0 N 1006,8 4,8
23.10.2020 21:00:00 -0,8 -0,8 2 1 Z 1006,7 10
23.10.2020 20:00:00 -0,6 -0,6 0 0 N 1006,5 10
23.10.2020 19:00:00 -0,2 -0,2 0 0 N 1006,6 10
23.10.2020 18:00:00 0,0 -0,1 0 0 N 1006,1 10
23.10.2020 17:00:00 0,8 0,2 0 0 N 1005,7 10
23.10.2020 16:00:00 2,6 0,8 5 3 WNW 1005,2 10
23.10.2020 15:00:00 3,5 0,5 13 7 NW 1005,0 10
23.10.2020 14:00:00 4,0 1,7 11 6 NNW 1004,5 10
23.10.2020 13:00:00 3,9 1,8 13 7 WNW 1004,0 10
23.10.2020 12:00:00 3,9 2,3 16 9 NNW 1003,1 10
23.10.2020 11:00:00 4,1 2,8 15 8 NNW 1002,1 10
23.10.2020 10:00:00 4,0 3,1 15 8 NNW 1000,8 7
23.10.2020 09:00:00 4,0 3,1 15 8 N 999,9 9
23.10.2020 08:00:00 5,2 4,3 18 10 N 998,5 10
23.10.2020 07:00:00 6,4 5,7 15 8 N 997,0 10
23.10.2020 06:00:00 8,8 7,7 11 6 WZW 995,5 10
23.10.2020 05:00:00 9,6 9,1 13 7 ZW 994,9 10
23.10.2020 04:00:00 9,9 8,8 11 6 ZZW 995,1 10
23.10.2020 03:00:00 10,2 8,8 13 7 ZZW 995,5 10
23.10.2020 02:00:00 10,3 9,1 13 7 ZZW 995,8 10
23.10.2020 01:00:00 10,5 9,4 11 6 ZW 996,1 10
23.10.2020 00:00:00 11,0 9,9 16 9 WZW 996,3 10
22.10.2020 23:00:00 11,4 10,6 18 10 ZW 996,5 4,8
22.10.2020 22:00:00 12,2 10,9 16 9 ZW 996,5 10
22.10.2020 21:00:00 11,9 11,3 15 8 ZZW 996,6 10
22.10.2020 20:00:00 11,5 11,0 9 5 Z 996,9 10
22.10.2020 19:00:00 11,2 10,9 9 5 Z 997,6 10
22.10.2020 18:00:00 11,1 10,5 8 4 Z 997,9 10
22.10.2020 17:00:00 10,7 10,1 8 4 ZW 998,2 10
22.10.2020 16:00:00 11,2 10,1 11 6 W 998,2 10
22.10.2020 15:00:00 11,2 9,8 21 11 W 997,7 10
22.10.2020 14:00:00 11,3 10,2 24 13 W 996,7 10
22.10.2020 13:00:00 11,5 10,6 29 16 W 995,2 10
22.10.2020 12:00:00 11,3 10,7 28 15 W 993,4 10
22.10.2020 11:00:00 11,5 11,3 16 9 WNW 991,7 8
22.10.2020 10:00:00 11,5 11,5 5 3 W 990,5 2,7
22.10.2020 09:00:00 11,2 11,2 0 0 N 989,8 4,0
22.10.2020 08:00:00 11,0 11,0 5 3 OZO 989,8 4,0
22.10.2020 07:00:00 10,7 10,7 8 4 OZO 990,0 4,5
22.10.2020 06:00:00 10,5 10,3 9 5 OZO 990,9 8
22.10.2020 05:00:00 10,6 10,4 13 7 OZO 992,1 10
22.10.2020 04:00:00 10,7 10,5 16 9 OZO 993,4 3,6
22.10.2020 03:00:00 10,9 10,7 13 7 ZO 995,0 9
22.10.2020 02:00:00 10,8 10,6 13 7 OZO 996,5 4,3
22.10.2020 01:00:00 10,6 10,4 11 6 OZO 998,1 6
22.10.2020 00:00:00 10,2 10,0 8 4 OZO 999,4 6

tt = temperatuur
td = dauwpunt
ff = windsnelheid
dd = windrichting
ppp = luchtdruk
vv = zicht

Weerstations in de omgeving